Вернуться в каталог

STARLINK-37854

АктивенСвязьSSO
NORAD 69494·PAYLOAD·🇺🇸 United States

Запущен Jun 11, 2026 с Vandenberg Space Force Base

Loading…

Ближайшие Пролёты (ближайшие 24 часа)

TLE

СвежийSource: CelesTrak SupGP

Эпоха: Sep 14, 2026, 22:45 UTC

1 69494C 26131S   26257.94840278  .00070437  00000+0  21831-2 0  2573
2 69494  97.2837 278.9311 0001754  92.5209 107.8631 15.33453449    13

Отслеживайте STARLINK-37854 в реальном времени с AllMySat

Download on the App Store